Location: Newark
(35.5000°N, 109.0000°E)
Time: 19:48:05
(UTC+00:00)

N. Korean satellite - Pass Details

Date: 30 September 2020
Orbit: 452 x 505 km, 97.2° (Epoch: 28 October)

Event Time Altitude Azimuth Distance (km) Brightness Sun altitude
Rises 22:00:20 0° 16° (NNE) 2,558 10.5 -8.7°
Reaches altitude 10° 22:02:27 10° 20° (NNE) 1,664 9.6 -8.2°
Maximum altitude 22:05:59 57° 100° (E) 566 7.3 -7.5°
Drops below altitude 10° 22:09:25 10° 180° (S) 1,621 9.2 -6.8°
Sets 22:11:27 0° 184° (S) 2,484 10.1 -6.4°
